KE8ZLU Weather Reports


Display with metric or nautical units.
time (UTC)temp
F
wind
direction
speed
MPH
gust
MPH
rain 1hr
in
rain 24hr
in
rain mn
in
humidity
%
barometer
mb
20260502221603 48 285 4.0 7.0 0.00 0.00 0.00 49 1017.4
20260502221100 47 356 4.0 8.0 0.00 0.00 0.00 50 1017.6
20260502220556 47 301 8.0 10.0 0.00 0.00 0.00 48 1017.6
20260502220053 47 262 9.0 10.0 0.00 0.00 0.00 48 1017.3
20260502215550 47 297 4.0 9.0 0.00 0.00 0.00 49 1017.3
20260502215047 47 301 6.0 8.0 0.00 0.00 0.00 50 1017.4
20260502214544 47 297 3.0 8.0 0.00 0.00 0.00 48 1017.4
20260502214041 47 286 8.0 13.0 0.00 0.00 0.00 47 1017.4
20260502213538 48 300 5.0 7.0 0.00 0.00 0.00 47 1017.4
20260502213036 48 277 4.0 8.0 0.00 0.00 0.00 50 1017.4
20260502212535 47 271 6.0 10.0 0.00 0.00 0.00 50 1017.4
20260502212032 47 270 8.0 9.0 0.00 0.00 0.00 49 1017.5
20260502211527 47 316 7.0 8.0 0.00 0.00 0.00 50 1017.5
20260502211025 46 309 6.0 7.0 0.00 0.00 0.00 48 1017.6
20260502210521 46 311 4.0 6.0 0.00 0.00 0.00 52 1017.6
20260502210019 46 303 6.0 8.0 0.00 0.00 0.00 50 1017.6
20260502205515 47 309 4.0 7.0 0.00 0.00 0.00 49 1017.7
20260502205012 46 340 7.0 8.0 0.00 0.00 0.00 50 1017.6
20260502204509 46 310 7.0 10.0 0.00 0.00 0.00 50 1017.7
20260502204007 46 305 9.0 10.0 0.00 0.00 0.00 49 1017.8
20260502203504 46 288 10.0 11.0 0.00 0.00 0.00 49 1017.7
20260502203001 46 276 9.0 10.0 0.00 0.00 0.00 48 1017.9
20260502202457 46 298 4.0 9.0 0.00 0.00 0.00 49 1017.9
20260502201955 47 303 6.0 8.0 0.00 0.00 0.00 48 1018.0
20260502201450 47 324 9.0 9.0 0.00 0.00 0.00 46 1017.9
20260502200947 46 304 7.0 8.0 0.00 0.00 0.00 50 1018.0
20260502200443 46 312 6.0 7.0 0.00 0.00 0.00 48 1018.1
20260502195941 46 312 6.0 7.0 0.00 0.00 0.00 48 1018.1
20260502195438 46 302 11.0 13.0 0.00 0.00 0.00 47 1018.2
20260502194934 46 313 9.0 9.0 0.00 0.00 0.00 47 1018.1
20260502194431 46 313 9.0 9.0 0.00 0.00 0.00 47 1018.2
20260502193927 46 313 9.0 9.0 0.00 0.00 0.00 47 1018.5
20260502193425 46 331 5.0 7.0 0.00 0.00 0.00 52 1018.5
20260502192920 46 331 5.0 7.0 0.00 0.00 0.00 52 1018.4
20260502192417 46 331 5.0 7.0 0.00 0.00 0.00 52 1018.6
20260502191914 46 316 6.0 7.0 0.00 0.00 0.00 49 1018.5
20260502191412 47 306 12.0 14.0 0.00 0.00 0.00 46 1018.6
20260502190909 47 306 12.0 14.0 0.00 0.00 0.00 46 1018.8
20260502190406 46 276 9.0 10.0 0.00 0.00 0.00 48 1018.7
20260502185903 47 307 11.0 13.0 0.00 0.00 0.00 49 1018.7
20260502185358 46 270 11.0 13.0 0.00 0.00 0.00 47 1018.8
20260502184855 45 298 11.0 14.0 0.00 0.00 0.00 51 1018.9
20260502184350 45 348 5.0 6.0 0.00 0.00 0.00 51 1018.8
20260502183848 45 276 13.0 16.0 0.00 0.00 0.00 48 1018.9
20260502183343 46 300 9.0 10.0 0.00 0.00 0.00 48 1018.9
20260502182838 44 300 6.0 8.0 0.00 0.00 0.00 48 1018.9
20260502182334 44 300 6.0 8.0 0.00 0.00 0.00 48 1018.8
20260502181831 44 300 6.0 8.0 0.00 0.00 0.00 48 1019.0
20260502181330 45 353 6.0 7.0 0.00 0.00 0.00 45 1019.0
20260502180828 45 353 6.0 7.0 0.00 0.00 0.00 45 1019.0
20260502180325 45 275 5.0 8.0 0.00 0.00 0.00 46 1019.1
20260502170243 44 296 4.0 4.0 0.00 0.00 0.00 50 1019.3
20260502164230 44 340 4.0 4.0 0.00 0.00 0.00 48 1019.6
20260502163726 43 268 4.0 4.0 0.00 0.00 0.00 47 1019.4
20260502163223 44 277 6.0 6.0 0.00 0.00 0.00 49 1019.8
20260502162720 44 299 2.0 4.0 0.00 0.00 0.00 47 1019.6
20260502162216 43 300 6.0 8.0 0.00 0.00 0.00 48 1019.9
20260502161713 43 347 6.0 10.0 0.00 0.00 0.00 48 1019.9
20260502161209 43 319 7.0 9.0 0.00 0.00 0.00 52 1020.0
20260502160708 43 318 8.0 10.0 0.00 0.00 0.00 49 1019.9
20260502160207 44 286 9.0 10.0 0.00 0.00 0.00 47 1019.9
20260502152126 42 290 7.0 9.0 0.00 0.00 0.00 52 1020.0
20260502151623 41 328 8.0 10.0 0.00 0.00 0.00 52 1019.9
20260502151121 41 275 4.0 7.0 0.00 0.00 0.00 55 1020.0
20260502150618 41 257 9.0 11.0 0.00 0.00 0.00 52 1020.0
20260502150114 42 327 7.0 9.0 0.00 0.00 0.00 51 1020.0
20260502130503 38 271 4.0 6.0 0.00 0.00 0.00 74 1020.1
20260502123446 37 315 4.0 7.0 0.00 0.00 0.00 80 1020.0
20260502122943 36 292 3.0 8.0 0.00 0.00 0.00 80 1020.2
20260502122439 36 324 3.0 7.0 0.00 0.00 0.00 81 1020.3
20260502121937 36 338 3.0 4.0 0.00 0.00 0.00 81 1020.0
20260502121434 35 310 5.0 6.0 0.00 0.00 0.00 80 1019.9
20260502120932 35 319 3.0 6.0 0.00 0.00 0.00 81 1020.0
20260502120428 35 347 2.0 6.0 0.00 0.00 0.00 82 1020.0
20260502115925 35 334 5.0 6.0 0.00 0.00 0.00 82 1020.0
20260502115422 34 350 3.0 4.0 0.00 0.00 0.00 83 1019.8
20260502114918 34 342 3.0 6.0 0.00 0.00 0.00 83 1019.9
20260502114415 33 317 3.0 6.0 0.00 0.00 0.00 84 1019.5
20260502113912 33 314 3.0 4.0 0.00 0.00 0.00 84 1019.6
20260502113410 33 356 3.0 4.0 0.00 0.00 0.00 84 1019.6
20260502112908 33 346 1.0 4.0 0.00 0.00 0.00 85 1019.6
20260502112405 33 329 3.0 4.0 0.00 0.00 0.00 85 1019.5
20260502111902 32 355 2.0 4.0 0.00 0.00 0.00 86 1019.6
20260502111359 32 323 1.0 2.0 0.00 0.00 0.00 87 1019.4
20260502110857 32 329 1.0 1.0 0.00 0.00 0.00 87 1019.5
20260502110355 31 318 2.0 2.0 0.00 0.00 0.00 87 1019.4
20260502105852 31 311 1.0 2.0 0.00 0.00 0.00 88 1019.3
20260502105349 31 308 1.0 2.0 0.00 0.00 0.00 88 1019.3
20260502104847 31 312 2.0 2.0 0.00 0.00 0.00 89 1019.5
20260502104344 30 307 1.0 2.0 0.00 0.00 0.00 88 1019.4
20260502103841 31 294 2.0 3.0 0.00 0.00 0.00 88 1019.4
20260502103338 31 311 1.0 2.0 0.00 0.00 0.00 88 1019.5
20260502102835 31 306 1.0 1.0 0.00 0.00 0.00 88 1019.3
20260502102332 31 297 2.0 2.0 0.00 0.00 0.00 88 1019.4
20260502101830 31 303 1.0 2.0 0.00 0.00 0.00 88 1019.3
20260502101327 31 307 1.0 2.0 0.00 0.00 0.00 87 1019.2
20260502100826 31 312 1.0 2.0 0.00 0.00 0.00 87 1019.1
20260502100325 31 317 1.0 1.0 0.00 0.00 0.00 87 1019.3
20260502091258 32 306 1.0 1.0 0.00 0.00 0.00 84 1019.1
20260502090756 32 310 1.0 1.0 0.00 0.00 0.00 83 1018.9
20260502090252 32 298 2.0 2.0 0.00 0.00 0.00 82 1018.8
20260502071153 36 301 2.0 3.0 0.00 0.00 0.00 74 1018.4
20260502070651 37 306 2.0 2.0 0.00 0.00 0.00 74 1018.5
20260502070149 37 305 2.0 3.0 0.00 0.00 0.00 72 1018.5
20260502065647 37 307 3.0 3.0 0.00 0.00 0.00 71 1018.6
20260502065144 37 315 2.0 3.0 0.00 0.00 0.00 72 1018.5
20260502064643 38 336 4.0 6.0 0.00 0.00 0.00 70 1018.5
20260502064139 38 342 3.0 4.0 0.00 0.00 0.00 71 1018.5
20260502063637 38 335 2.0 3.0 0.00 0.00 0.00 70 1018.6
20260502063135 38 322 2.0 2.0 0.00 0.00 0.00 72 1018.7
20260502062632 38 349 2.0 2.0 0.00 0.00 0.00 72 1018.6
20260502062129 38 335 2.0 4.0 0.00 0.00 0.00 71 1018.7
20260502061628 38 320 1.0 2.0 0.00 0.00 0.00 72 1018.7
20260502061125 38 302 4.0 4.0 0.00 0.00 0.00 70 1018.7
20260502060625 38 322 2.0 3.0 0.00 0.00 0.00 70 1018.8
20260502060122 38 315 1.0 2.0 0.00 0.00 0.00 69 1018.7
20260502055620 39 314 3.0 3.0 0.00 0.00 0.00 68 1018.8
20260502055117 39 339 2.0 4.0 0.00 0.00 0.00 65 1018.8
20260502054616 39 340 2.0 3.0 0.00 0.00 0.00 66 1018.8
20260502054113 39 9 2.0 4.0 0.00 0.00 0.00 65 1018.7
20260502053610 39 337 5.0 6.0 0.00 0.00 0.00 65 1018.9
20260502053107 39 336 2.0 3.0 0.00 0.00 0.00 65 1018.8
20260502052606 39 337 2.0 3.0 0.00 0.00 0.00 65 1018.9
20260502052104 39 341 1.0 3.0 0.00 0.00 0.00 66 1018.7
20260502051601 39 321 2.0 3.0 0.00 0.00 0.00 65 1018.8
20260502051059 39 349 1.0 2.0 0.00 0.00 0.00 66 1018.8
20260502050555 39 355 1.0 2.0 0.00 0.00 0.00 66 1018.6
20260502050052 39 354 2.0 3.0 0.00 0.00 0.00 65 1018.6
20260502045548 39 8 2.0 3.0 0.00 0.00 0.00 64 1018.6
20260502045046 40 350 3.0 3.0 0.00 0.00 0.00 64 1018.4
20260502044542 40 29 2.0 6.0 0.00 0.00 0.00 63 1018.5
20260502044039 40 23 2.0 4.0 0.00 0.00 0.00 65 1018.3
20260502043537 40 0 5.0 7.0 0.00 0.00 0.00 63 1018.3
20260502043033 40 356 3.0 6.0 0.00 0.00 0.00 64 1018.5
20260502042528 40 303 4.0 8.0 0.00 0.00 0.00 65 1018.4
20260502042025 40 289 4.0 4.0 0.00 0.00 0.00 66 1018.1
20260502041523 40 321 1.0 2.0 0.00 0.00 0.00 66 1018.3
20260502041020 40 335 2.0 3.0 0.00 0.00 0.00 65 1018.3
20260502040516 40 343 2.0 4.0 0.00 0.00 0.00 65 1018.1
20260502040014 40 356 3.0 7.0 0.00 0.00 0.00 64 1018.1
20260502035509 40 350 3.0 6.0 0.00 0.00 0.00 64 1018.1
20260502035007 40 7 5.0 8.0 0.00 0.00 0.00 64 1018.2
20260502034505 40 326 4.0 7.0 0.00 0.00 0.00 66 1018.2
20260502034003 40 338 4.0 8.0 0.00 0.00 0.00 65 1017.9
20260502033501 40 347 6.0 8.0 0.00 0.00 0.00 64 1018.1
20260502032957 40 357 7.0 9.0 0.00 0.00 0.00 64 1018.1
20260502032454 40 329 4.0 8.0 0.00 0.00 0.00 65 1018.1
20260502031950 40 355 4.0 7.0 0.00 0.00 0.00 66 1018.3
20260502031449 41 344 3.0 4.0 0.00 0.00 0.00 65 1018.1
20260502030947 41 355 4.0 7.0 0.00 0.00 0.00 66 1018.0
20260502030445 41 335 7.0 9.0 0.00 0.00 0.00 65 1018.0
20260502025942 41 337 7.0 9.0 0.00 0.00 0.00 65 1018.0
20260502025439 41 334 6.0 10.0 0.00 0.00 0.00 64 1017.9
20260502024937 41 336 8.0 10.0 0.00 0.00 0.00 64 1017.8
20260502024435 41 347 5.0 8.0 0.00 0.00 0.00 65 1017.8
20260502023933 41 344 4.0 6.0 0.00 0.00 0.00 69 1018.0
20260502023430 41 337 2.0 4.0 0.00 0.00 0.00 71 1017.6
20260502022928 41 325 1.0 2.0 0.00 0.00 0.00 71 1017.6
20260502022424 41 307 3.0 4.0 0.00 0.00 0.00 71 1017.6
20260502021921 41 285 4.0 4.0 0.00 0.00 0.00 71 1017.8
20260502021418 41 305 2.0 2.0 0.00 0.00 0.00 72 1017.5
20260502020915 41 289 3.0 3.0 0.00 0.00 0.00 70 1017.6
20260502020413 41 319 2.0 2.0 0.00 0.00 0.00 71 1017.5
20260502015909 41 315 2.0 2.0 0.00 0.00 0.00 72 1017.4
20260502015407 41 340 0.0 2.0 0.00 0.00 0.00 71 1017.4
20260502014904 41 323 2.0 2.0 0.00 0.00 0.00 71 1017.3
20260502014401 41 335 1.0 4.0 0.00 0.00 0.00 69 1017.4
20260502013857 41 309 5.0 6.0 0.00 0.00 0.00 68 1017.3
20260502013352 42 322 4.0 6.0 0.00 0.00 0.00 70 1017.5
20260502012849 42 350 2.0 4.0 0.00 0.00 0.00 71 1017.5
20260502012347 41 344 4.0 6.0 0.00 0.00 0.00 71 1017.3
20260502011844 42 357 2.0 3.0 0.00 0.00 0.00 71 1017.3
20260502011340 41 333 2.0 4.0 0.00 0.00 0.00 70 1017.1
20260502010838 42 344 2.0 3.0 0.00 0.00 0.00 70 1017.2
20260502010334 42 325 5.0 6.0 0.00 0.00 0.00 71 1017.2
20260502005831 42 309 5.0 7.0 0.00 0.00 0.00 69 1017.1
20260502005329 42 301 4.0 6.0 0.00 0.00 0.00 70 1017.3
20260502004821 42 315 5.0 7.0 0.00 0.00 0.00 70 1017.0
20260502004316 42 338 8.0 9.0 0.00 0.00 0.00 69 1017.0
20260502003815 42 320 4.0 7.0 0.00 0.00 0.00 69 1017.1
20260502003311 42 297 5.0 7.0 0.00 0.00 0.00 69 1017.2
20260502002807 42 316 3.0 4.0 0.00 0.00 0.00 70 1017.1
20260502002306 42 313 6.0 7.0 0.00 0.00 0.00 69 1016.9
20260502001803 42 311 5.0 6.0 0.00 0.00 0.00 70 1017.2
20260502001300 42 315 8.0 10.0 0.00 0.00 0.00 69 1017.0
20260502000757 42 308 4.0 6.0 0.00 0.00 0.00 69 1017.2
20260502000256 42 324 7.0 8.0 0.00 0.00 0.00 69 1017.0
20260501235755 42 322 5.0 8.0 0.00 0.00 0.00 70 1017.1
20260501235252 42 313 5.0 8.0 0.00 0.00 0.00 69 1016.9
20260501234748 43 4 5.0 7.0 0.00 0.00 0.00 69 1017.0
20260501234245 43 305 6.0 9.0 0.00 0.00 0.00 68 1016.9
20260501233743 43 324 9.0 13.0 0.00 0.00 0.00 67 1016.8
20260501233240 43 328 6.0 9.0 0.00 0.00 0.00 66 1016.8
20260501232735 44 289 4.0 9.0 0.00 0.00 0.00 67 1016.9
20260501232233 44 315 6.0 8.0 0.00 0.00 0.00 66 1016.6
20260501231731 44 311 6.0 9.0 0.00 0.00 0.00 65 1016.7
20260501231229 44 315 8.0 9.0 0.00 0.00 0.00 65 1016.9
20260501230727 44 296 7.0 9.0 0.00 0.00 0.00 65 1016.9
20260501230225 44 333 5.0 7.0 0.00 0.00 0.00 65 1016.7
20260501225722 44 319 5.0 7.0 0.00 0.00 0.00 66 1016.9
20260501225219 44 8 5.0 7.0 0.00 0.00 0.00 65 1016.9
20260501224715 44 288 6.0 11.0 0.00 0.00 0.00 65 1016.8
20260501224213 44 275 5.0 7.0 0.00 0.00 0.00 67 1016.7
20260501223709 44 302 4.0 6.0 0.00 0.00 0.00 66 1016.7
20260501223205 44 293 5.0 8.0 0.00 0.00 0.00 66 1016.9
20260501222701 44 313 3.0 8.0 0.00 0.00 0.00 65 1016.7
20260501222159 44 287 6.0 7.0 0.00 0.00 0.00 66 1016.8